Regional Weather Roundup
Issued by NWS Jackson, KY

Home | Current Version | Previous Version | Graphics & Text | Print | Product List | Glossary On
Versions: 1 2 3 4 5 6 7 8 9 10 11 12 13 14 15 16 17 18 19 20 21 22 23 24 25 26 27
000
ASUS43 KJKL 191810
RWRJKL

EAST KENTUCKY HOURLY WEATHER ROUNDUP
NATIONAL WEATHER SERVICE JACKSON KY
100 PM EST SUN NOV 19 2017

NOTE: "FAIR" INDICATES FEW OR NO CLOUDS BELOW 12,000 FEET WITH
NO SIGNIFICANT WEATHER AND/OR OBSTRUCTIONS TO VISIBILITY.

* THESE REPORTS ARE NOT UNDER NWS QUALITY CONTROL AND MAY NOT
  REPORT WEATHER SUCH AS PRECIPITATION AND FOG.

KYZ079-080-083-085-087-088-110-112-115-119-120-191900
...EASTERN KENTUCKY...

CITY           SKY/WX    TMP DP  RH WIND       PRES   REMARKS
JACKSON        CLOUDY    39  30  70 VRB5      30.02S
6HR MIN TEMP:  37; 6HR MAX TEMP:  39;

LONDON         CLOUDY    40  31  70 W15       30.06S WCI  32
6HR MIN TEMP:  38; 6HR MAX TEMP:  41;

SOMERSET*      CLOUDY    37  30  75 W12       30.10S WCI  30
MONTICELLO*    CLOUDY    41  32  70 W17G24    30.11R
6HR MIN TEMP:  38; 6HR MAX TEMP:  42;

WILLIAMSBURG*  CLOUDY    39  32  75 W7        30.07R WCI  34
MIDDLESBORO*   CLOUDY    42  32  68 NW3       30.06F
6HR MIN TEMP:  39; 6HR MAX TEMP:  42;

HARLAN APT*    CLOUDY    39  30  70 SW8       30.03F WCI  34
PIKE CO APT*   CLOUDY    37  31  76 W6        30.00S WCI  33
BIG SANDY APT* CLOUDY    39  31  72 W6G17     30.01S WCI  35
6HR MIN TEMP:  38; 6HR MAX TEMP:  39;

MOREHEAD APT*  CLOUDY    41  30  65 W10G18    30.03S
$$

KYZ035-036-041-042-044-050-067-078-099-191900
...CENTRAL KENTUCKY...

CITY           SKY/WX    TMP DP  RH WIND       PRES   REMARKS
MT STERLING*   CLOUDY    37  32  81 NW12G18   30.05F WCI  30
FLEMING/MASON* CLOUDY    38  32  76 W20G26    30.02F WCI  29
DANVILLE*      CLOUDY    36  30  80 W17       30.08F WCI  25
LEXINGTON      CLOUDY    38  31  76 W17G25    30.05F WCI  28
6HR MIN TEMP:  38; 6HR MAX TEMP:  40;

FRANKFORT      CLOUDY    37  29  72 W13G23    30.06F WCI  29
6HR MIN TEMP:  37; 6HR MAX TEMP:  40;

LOUISVILLE     CLOUDY    39  29  67 W13       30.10F WCI  31
6HR MIN TEMP:  38; 6HR MAX TEMP:  41;

LEBANON*       CLOUDY    37  28  70 W13       30.10F WCI  29
GLASGOW*       CLOUDY    39  30  70 W9        30.13F WCI  32
BOWLING GREEN  MOSUNNY   44  29  55 NW7       30.15F
6HR MIN TEMP:  39; 6HR MAX TEMP:  44;

$$

KYZ091>093-OHZ055-061-077-WVZ005-015-034-035-042-191900
...SOUTHERN OHIO/WEST VIRGINIA...

CITY           SKY/WX    TMP DP  RH WIND       PRES   REMARKS
COVINGTON      CLOUDY    37  29  72 W16       30.02F WCI  28
COLUMBUS       LGT RAIN  39  33  79 W22G29    29.92S WCI  29
DAYTON         CLOUDY    37  30  75 W21       29.97F WCI  26
WILMINGTON     CLOUDY    37  31  78 W17G24    29.97F WCI  27
HUNTINGTON     CLOUDY    42  26  53 W13G20    29.98S
CHARLESTON     CLOUDY    41  28  60 W9G16     29.95F
PINEVILLE*       N/A     37  30  75 MISG      30.01R
BECKLEY        CLOUDY    33  25  72 NW9G18    29.90S WCI  25
BLUEFIELD      CLOUDY    31  26  82 W13G29    29.90S WCI  21
LOGAN CO APT*  CLOUDY    37  28  70 W3G13     29.96S
$$

VAZ002-007-008-TNZ017-027-036-066-071-191900
...SOUTHWEST VIRGINIA/EAST TENNESSEE...

CITY           SKY/WX    TMP DP  RH WIND       PRES   REMARKS
WISE*          CLOUDY    34  32  93 W12       29.98S WCI  25
JONESVILLE*    CLOUDY    39  30  70 W8        30.06S WCI  34
ABINGDON*      CLOUDY    39  34  80 NW8       29.96F WCI  34
BRISTOL        PTSUNNY   41  29  62 W14       30.00F
MORRISTOWN*    CLOUDY    43  28  56 NW12      30.04S
SEVIERVILLE*   CLOUDY    45  32  61 NW8       30.06S
KNOXVILLE      CLOUDY    44  34  67 W8        30.06F
OAK RIDGE      CLOUDY    46  30  53 W5        30.08F
CROSSVILLE     CLOUDY    38  29  70 W13       30.07F WCI  30
NASHVILLE      MOSUNNY   46  21  37 N12G18    30.16F
$$

...KEY TO REMARKS...
VSB - VISIBILITY IN MILES
WCI - WIND CHILL INDEX
HX  - HEAT INDEX

$$




USA.gov is the U.S. government's official web portal to all federal, state and local government web resources and services.